Wind_Speed
15 15 16 17 17 18 18 17 17 17 18 17 17 17 17 17 16 17 17 17 17 17 17 18 17 17 18 18 19 20 20 20 21 21 20 20 19 18 18 17 17 16 15 14 13 12 11 11 11 12 13 15 16 17 18 18 18 17 16 15 14 15 16 16 16 17 17 17 17 18 19 20 21 23 25 26 27 28 30 30 30 30 31 31 31
15 15 15 16 17 17 18 18 17 17 18 18 17 17 17 17 17 17 17 17 17 16 16 17 17 17 16 17 17 18 18 18 19 19 19 18 18 18 18 17 17 15 14 13 12 11 11 11 11 13 14 16 17 17 17 17 17 16 15 14 14 15 16 16 16 17 17 17 18 19 19 20 22 24 26 26 27 28 29 30 31 31 31 32 32
15 15 15 16 16 17 17 17 17 18 18 18 18 18 18 18 17 17 17 16 16 16 16 16 16 16 15 16 16 17 17 17 17 17 17 17 18 18 18 17 15 14 12 11 10 10 11 11 12 14 15 16 17 17 17 17 16 15 14 14 14 15 16 16 17 17 18 19 19 19 20 21 22 24 26 26 27 28 29 30 31 32 32 33 33
14 15 16 16 16 17 17 17 17 17 17 18 18 18 19 19 18 17 16 16 16 16 16 15 15 15 15 15 16 16 15 15 16 16 17 17 18 18 17 15 13 12 11 10 10 11 11 12 13 15 16 16 16 16 16 15 15 14 13 13 14 15 16 17 18 18 19 20 20 20 20 22 23 25 26 26 27 28 30 31 32 33 33 34 34
13 14 15 16 16 16 16 16 16 16 16 17 18 19 19 19 18 17 17 16 16 16 15 15 15 15 15 15 14 14 14 14 15 16 17 18 18 17 15 13 11 10 9 9 10 11 11 12 14 15 15 15 15 15 15 14 14 13 12 13 15 15 16 17 18 18 19 20 20 20 21 23 24 25 26 27 28 29 31 32 33 34 34 34 35
13 13 14 15 15 15 15 16 16 16 16 17 17 18 19 19 19 18 17 17 16 16 15 15 15 15 15 14 14 14 14 14 14 16 17 17 16 14 13 11 10 9 9 9 9 10 11 13 13 14 14 14 14 14 14 13 12 12 12 14 15 15 17 17 17 18 19 19 20 21 22 24 25 26 26 27 28 30 31 33 33 34 34 35 35
13 13 13 14 14 14 15 15 15 15 15 16 17 17 18 19 19 18 17 17 16 16 15 15 15 15 15 15 14 14 14 14 15 16 16 16 14 12 11 9 9 8 8 8 9 10 11 12 13 13 13 13 13 13 12 12 12 12 13 14 14 16 16 16 16 17 18 19 20 22 23 24 25 25 26 27 29 30 31 32 33 34 35 35 36
13 13 13 14 14 14 14 14 14 14 15 15 16 17 17 18 18 18 17 16 16 16 15 15 15 15 15 15 14 14 14 14 15 16 15 14 12 11 9 8 8 8 8 8 9 10 11 12 12 12 12 12 12 12 11 11 12 12 13 14 14 15 15 14 15 17 18 19 21 23 24 24 24 25 26 27 29 30 31 32 33 34 35 36 36
12 13 13 14 14 14 14 14 14 14 14 14 15 16 16 17 16 16 16 16 15 15 14 14 14 14 14 14 14 14 14 14 14 14 14 13 11 9 8 8 8 9 8 8 8 9 10 11 12 12 12 11 11 11 11 12 12 13 13 13 14 14 14 14 15 17 18 20 21 23 23 23 24 24 26 28 29 30 30 31 32 33 34 35 36
12 12 13 13 14 14 14 14 14 13 13 13 14 14 15 15 15 15 15 14 14 14 13 12 12 12 12 13 14 14 14 14 14 13 13 12 10 8 8 8 9 9 8 8 8 9 10 11 11 11 11 10 11 11 12 12 13 13 13 13 13 13 13 14 15 17 18 20 22 23 23 23 23 25 26 28 29 30 30 31 32 32 33 34 35
11 12 12 12 13 14 14 14 13 13 12 12 13 13 14 14 14 14 13 13 13 12 12 11 11 11 11 12 13 14 14 14 13 13 12 11 9 8 8 8 9 9 8 8 7 8 10 10 10 10 10 11 11 12 13 13 13 13 13 13 13 14 14 15 16 17 19 21 22 23 23 23 24 25 27 29 30 30 31 31 32 33 33 34 34
11 11 11 11 12 14 14 14 14 13 12 11 12 12 13 13 14 13 13 12 12 12 11 11 11 11 11 12 13 13 13 13 12 12 11 10 9 8 9 9 9 9 8 7 8 9 9 10 10 10 11 11 12 13 13 13 14 14 13 14 14 15 16 16 17 18 19 21 22 23 23 23 25 27 28 29 30 31 31 32 32 33 33 34 34
11 11 10 10 11 13 14 14 14 14 13 12 11 11 12 13 13 13 13 12 11 11 11 11 12 11 11 12 13 13 13 12 11 10 9 9 9 9 9 10 10 9 8 7 8 9 10 10 10 11 12 12 13 13 14 14 14 14 14 15 16 17 17 17 17 19 20 21 22 22 23 24 26 28 29 30 30 31 31 31 32 32 33 34 34
11 11 11 11 11 12 13 14 14 14 13 12 11 11 12 13 13 13 13 12 12 11 11 11 12 12 11 11 13 13 12 12 11 10 9 8 8 10 10 11 10 9 8 8 9 9 10 10 11 11 12 13 13 14 14 15 15 15 15 16 17 17 17 17 18 19 20 21 22 22 23 25 27 28 29 30 30 30 31 31 31 32 33 33 34
12 12 11 11 12 12 13 13 13 13 13 12 11 11 12 13 13 13 13 12 12 12 12 12 12 12 12 11 12 12 12 11 10 9 9 8 8 10 11 11 11 10 9 9 9 10 10 11 11 11 12 13 13 14 14 15 15 15 15 16 16 16 17 18 19 20 21 21 22 22 24 26 27 28 29 29 30 30 31 31 32 32 33 34 34
12 12 12 12 12 13 13 14 14 14 13 12 11 11 12 13 13 13 13 12 11 11 12 12 12 12 12 12 12 12 11 11 10 9 9 7 8 10 11 12 12 11 10 10 10 10 10 10 11 12 12 13 14 14 14 14 15 15 15 15 16 16 17 18 20 20 21 22 22 23 24 26 27 28 28 29 30 30 31 32 33 34 34 35 35
13 13 13 12 13 13 14 14 14 14 13 13 12 11 12 13 13 12 11 11 10 10 11 11 11 11 11 11 11 11 11 10 9 9 8 7 7 10 12 12 12 12 11 11 11 10 10 11 11 12 12 13 14 14 14 14 15 15 15 15 15 17 18 19 20 21 21 22 22 23 25 26 27 28 28 29 30 30 31 32 33 34 35 36 36
13 13 13 13 14 14 15 15 15 14 14 13 12 12 13 13 12 11 10 9 9 9 10 10 11 11 11 10 10 10 9 9 8 7 7 7 7 10 12 13 12 12 12 12 11 11 11 11 11 12 12 13 13 13 13 14 14 14 14 15 16 17 18 19 20 21 22 22 22 24 25 26 27 28 29 29 30 30 31 32 33 34 35 36 36
14 14 14 14 15 15 15 15 15 14 13 12 12 12 12 12 11 10 9 9 8 8 9 10 11 11 11 10 9 8 8 7 6 5 6 7 8 10 12 12 12 12 12 12 12 11 11 11 11 12 12 12 12 13 13 14 14 14 14 15 16 17 18 19 20 21 22 22 23 24 25 26 27 28 29 30 30 31 32 32 33 34 35 35 36
15 15 15 15 15 15 15 15 15 14 13 12 11 11 12 12 11 10 9 8 9 9 10 10 11 11 10 9 7 6 6 6 5 5 6 7 8 10 12 13 12 12 12 12 12 12 11 11 11 11 12 12 12 13 13 13 13 14 14 15 16 17 18 19 20 21 21 22 23 24 25 27 28 28 29 30 30 31 32 32 33 33 34 35 36
15 15 15 15 15 15 15 15 14 14 13 12 12 12 12 11 11 9 8 8 9 10 11 10 10 10 9 8 7 6 5 5 4 4 5 7 8 10 12 13 12 12 12 12 12 11 11 11 11 11 11 11 12 13 13 13 13 14 14 15 16 17 18 19 20 21 21 22 23 25 26 27 28 28 29 30 30 31 31 31 32 33 33 34 35
15 14 14 14 14 14 14 14 14 13 13 13 12 12 12 11 10 9 8 8 9 11 11 11 11 10 9 8 7 6 6 5 4 4 5 6 7 9 11 13 13 12 12 12 12 11 10 10 10 10 11 11 12 12 12 12 13 13 14 15 15 16 18 19 19 20 21 22 24 25 26 27 27 28 29 29 30 30 30 31 32 32 33 33 33
15 14 14 13 13 13 13 14 13 13 13 12 12 12 11 11 10 9 9 9 9 10 11 11 11 10 9 9 8 7 6 6 5 4 5 6 7 8 10 12 12 12 11 11 11 10 10 9 9 9 10 10 11 11 11 12 12 13 13 14 15 16 17 18 19 20 21 22 24 26 26 26 27 27 28 29 29 29 29 30 31 31 32 32 32
15 14 13 13 13 13 13 13 13 12 12 11 11 11 11 10 10 10 10 10 10 10 10 10 10 10 9 9 8 7 7 6 5 5 5 6 7 8 9 11 12 12 11 11 10 9 9 9 9 9 9 9 9 10 10 11 11 12 13 13 14 15 16 17 19 19 21 22 24 25 25 25 25 26 27 27 27 28 28 29 30 30 31 31 32
14 14 13 13 13 13 13 13 13 12 11 11 11 11 11 10 10 10 10 10 10 9 9 9 8 7 7 7 7 7 8 7 6 6 6 6 7 7 8 10 11 11 10 10 9 8 8 8 8 7 7 8 8 8 9 10 11 12 12 12 13 14 15 16 18 19 20 22 23 23 23 23 23 24 25 26 26 26 27 27 28 29 29 30 31
14 14 13 13 13 13 13 13 12 12 11 11 11 10 10 10 10 10 10 9 9 9 9 8 8 7 6 5 5 6 7 8 8 7 6 7 7 7 7 8 9 10 9 8 8 8 8 7 6 6 6 6 6 7 8 9 11 11 12 12 12 13 14 15 17 18 20 21 21 20 20 20 22 23 24 24 25 25 25 26 27 27 27 28 29
14 14 13 13 13 13 13 13 12 12 11 11 11 11 11 11 10 10 10 10 10 9 9 8 8 7 7 6 6 6 6 7 8 8 8 8 7 7 7 8 8 8 8 8 8 7 7 6 5 5 5 5 5 6 7 9 10 10 11 11 11 12 13 14 15 17 18 19 17 16 17 18 20 22 23 24 24 24 24 25 25 25 25 26 27
13 14 13 13 13 13 13 13 13 12 12 11 11 12 11 11 11 11 11 10 10 9 8 8 8 7 7 8 7 7 7 7 8 8 9 8 8 8 7 7 8 8 7 7 7 7 6 5 4 4 4 4 4 5 7 8 9 9 9 9 10 10 12 13 13 15 17 15 13 13 14 16 19 21 23 24 24 24 24 24 24 23 24 24 25
13 14 13 13 13 13 13 13 13 13 13 12 12 12 12 12 12 11 11 11 10 9 8 8 8 8 8 8 8 8 9 8 8 8 8 9 8 8 8 8 7 7 7 7 7 6 5 4 3 3 3 3 4 5 7 8 8 8 8 8 9 10 11 12 11 13 14 12 10 10 11 14 17 20 21 23 24 25 25 24 24 23 23 23 24
14 14 14 14 14 14 14 14 14 13 13 13 13 13 12 12 12 12 11 11 11 10 9 9 8 7 7 7 8 8 9 9 8 8 8 8 8 7 7 8 8 7 7 7 6 5 4 4 3 2 2 2 3 4 6 7 7 7 7 7 8 9 10 10 9 10 11 10 8 9 10 12 15 18 20 21 23 24 25 25 25 24 23 23 23
14 14 14 14 14 15 14 14 14 14 14 14 13 13 13 12 12 12 11 11 11 11 10 9 8 7 7 7 7 8 9 9 9 8 8 8 8 7 7 7 7 7 7 6 6 5 5 4 3 2 1 0 1 2 4 6 6 6 6 6 6 7 8 8 7 8 9 9 9 9 10 10 13 16 19 21 22 23 24 25 25 25 24 23 23
15 15 14 15 15 15 16 15 15 15 14 14 14 14 14 13 13 12 12 12 12 11 10 9 8 7 7 7 7 8 8 8 8 8 8 9 9 8 6 6 6 6 6 6 5 5 6 5 5 4 3 2 1 1 2 4 5 5 4 4 4 5 6 6 5 6 9 9 9 10 10 10 11 15 18 20 21 23 24 25 25 25 25 25 24
17 16 15 15 16 16 17 17 16 15 15 14 15 15 14 14 13 13 13 12 11 10 9 8 7 6 6 6 6 6 7 7 8 8 8 9 9 9 7 6 5 5 5 5 5 5 6 6 6 5 4 4 3 3 1 1 3 3 2 1 2 3 4 5 4 5 7 8 9 11 11 10 11 14 17 20 22 23 24 25 25 25 25 25 25
19 18 17 16 16 17 17 18 17 16 15 15 15 16 15 15 14 13 13 13 12 10 9 8 7 6 5 5 5 4 5 5 6 7 8 9 10 10 9 7 6 5 5 5 5 5 6 6 6 7 6 6 6 5 4 3 1 1 1 1 2 2 3 3 4 5 7 8 9 11 12 12 13 14 16 19 22 24 25 25 25 24 24 25 25
20 19 18 17 17 17 18 18 18 17 16 15 15 16 16 16 15 14 14 14 12 11 10 9 8 7 6 5 5 4 3 4 4 5 6 8 9 10 10 9 8 7 6 6 5 5 6 6 7 7 8 8 8 7 7 7 6 3 2 2 3 3 2 2 3 5 6 7 9 11 12 14 15 16 16 18 21 23 25 25 25 24 24 24 24
22 21 20 18 18 18 18 19 19 18 17 16 16 16 17 17 16 15 15 14 13 12 11 10 9 8 8 7 6 5 4 4 4 4 4 5 6 7 8 9 9 9 9 8 8 7 7 7 8 8 9 9 9 9 10 10 10 8 6 4 4 4 4 4 4 4 5 6 8 11 13 14 16 18 18 19 21 22 24 25 25 24 24 24 23
23 22 21 20 19 19 20 20 20 20 19 17 16 16 17 18 17 16 16 15 14 13 13 12 11 10 9 9 8 7 7 6 5 5 4 4 4 5 6 7 8 10 10 11 10 10 9 9 9 9 10 10 10 10 11 11 12 12 11 9 7 7 6 7 7 7 6 7 9 12 14 16 17 19 20 20 20 21 22 23 25 25 25 24 22
24 23 22 21 20 20 21 22 22 21 20 19 17 17 18 18 18 17 17 16 16 15 15 14 13 12 11 11 10 9 9 8 7 6 6 5 5 5 5 5 6 8 10 11 11 11 11 11 11 11 11 11 11 11 11 12 13 13 13 12 11 10 10 10 10 10 9 10 11 13 15 17 18 20 21 21 20 20 20 21 23 25 25 24 22
27 25 23 22 22 22 23 23 23 23 22 20 19 18 18 19 19 19 18 18 17 17 16 16 15 14 13 12 12 11 10 9 8 8 7 6 6 6 5 5 5 6 8 9 10 11 11 12 12 12 12 13 13 12 12 12 13 14 14 13 12 12 13 13 13 13 12 12 13 15 16 18 19 20 21 20 19 18 18 20 22 23 24 25 23
28 27 26 25 25 25 25 25 25 24 23 21 20 19 19 20 21 21 20 20 19 18 18 17 16 16 15 14 14 13 11 10 9 8 8 8 7 7 7 6 6 7 7 7 7 8 10 11 12 13 13 14 14 14 13 13 14 14 15 15 13 12 13 13 13 14 14 14 14 15 17 18 19 20 19 18 17 17 17 19 21 22 24 24 24
31 30 29 28 27 27 26 26 26 26 25 23 22 21 20 21 22 22 22 22 21 20 20 19 18 17 17 16 15 14 13 11 10 9 9 9 9 9 9 8 7 8 8 8 8 8 9 10 11 12 13 13 14 15 14 14 14 14 15 16 16 14 13 13 13 14 15 14 14 15 17 18 18 18 17 16 16 16 17 19 21 22 23 24 25
33 32 31 30 29 28 27 28 27 27 26 24 24 23 22 22 23 24 24 24 24 23 22 21 20 19 19 18 17 16 14 12 11 11 10 10 10 10 9 8 8 9 9 10 10 10 10 10 11 12 12 12 14 14 14 14 14 14 15 17 17 16 15 14 14 14 14 15 14 14 16 16 16 15 15 15 15 17 18 20 21 22 23 24 25
34 34 33 31 30 30 29 29 28 27 26 26 25 25 24 23 24 25 26 26 26 25 24 23 22 22 21 20 18 17 15 14 13 13 12 11 11 11 10 9 8 8 9 10 11 12 12 12 13 13 13 13 14 14 14 13 13 14 16 17 18 17 16 16 14 13 13 14 14 13 13 14 14 14 14 15 16 17 19 20 21 22 24 25 25
36 35 34 33 32 31 31 30 29 28 27 27 27 26 25 25 25 25 27 28 28 28 27 26 25 24 23 22 20 18 17 16 15 15 14 13 13 13 12 11 9 9 9 10 11 12 12 13 13 14 15 15 15 16 15 13 12 13 15 17 18 18 17 17 16 14 13 13 13 12 11 12 13 13 14 15 16 17 19 20 21 23 24 25 26
37 36 35 35 34 33 32 31 30 30 29 29 29 28 27 27 26 26 27 28 29 30 30 29 27 26 25 24 22 20 19 19 18 17 16 16 15 15 13 12 11 11 11 11 12 12 13 13 13 14 15 15 16 17 16 15 14 14 15 16 17 18 18 18 17 15 13 12 12 12 11 11 13 13 14 15 16 17 19 20 21 23 25 26 26
39 37 37 36 35 35 34 33 32 31 31 31 30 30 29 28 28 28 28 29 30 31 31 31 30 29 28 26 24 23 22 21 20 20 19 19 18 17 15 14 14 14 14 13 14 14 13 13 13 14 15 14 16 18 18 17 16 16 16 17 17 18 18 18 17 16 15 14 12 12 12 11 12 14 15 16 17 18 20 21 22 24 25 25 25
40 39 38 38 37 36 35 34 33 32 31 31 31 30 30 30 30 29 28 28 29 30 32 33 33 32 31 29 27 26 25 24 23 23 23 22 22 20 18 17 17 17 16 16 16 16 15 14 14 14 15 15 15 17 18 18 17 17 17 18 18 20 20 19 18 18 18 16 13 13 13 12 12 14 16 17 19 20 21 22 23 24 25 25 25
42 41 41 40 39 38 37 35 34 32 32 32 32 31 30 31 31 30 29 28 28 29 31 32 33 34 33 32 30 29 28 27 27 27 26 25 24 23 21 21 21 20 19 19 20 19 17 16 15 15 17 17 18 19 20 20 19 18 18 17 18 21 21 20 20 20 20 18 16 15 15 14 14 15 16 18 20 21 22 23 24 24 25 26 26
43 43 43 42 41 40 39 37 35 33 32 33 33 32 31 32 32 31 29 28 28 28 29 31 32 34 34 33 32 32 31 30 30 30 30 29 27 25 25 24 24 23 22 22 23 22 20 19 18 17 18 20 21 21 22 22 21 20 19 19 19 21 21 21 22 22 21 20 19 17 16 15 16 16 17 19 21 22 24 25 24 24 25 27 28
44 44 45 44 43 42 41 38 36 34 33 33 33 32 32 32 32 31 29 28 28 27 28 29 30 32 33 34 34 34 33 32 33 33 33 32 30 28 28 28 26 25 25 25 26 24 22 20 19 19 20 22 23 24 24 24 24 23 22 21 21 21 21 21 22 23 22 22 22 21 18 17 17 18 19 20 22 24 25 25 25 25 26 28 29
44 45 45 45 44 43 42 40 38 36 35 34 34 33 33 33 33 31 30 29 28 27 27 28 29 30 31 33 35 35 35 35 36 36 36 35 34 32 32 31 29 27 28 30 29 26 24 21 20 20 21 23 25 26 26 26 25 24 24 24 24 23 23 22 23 23 22 23 24 24 21 19 18 19 21 23 23 24 25 26 25 26 27 29 30
Wind_Direction
103 99 97 95 94 92 90 89 90 91 92 94 95 98 100 104 106 107 107 107 107 107 107 106 104 104 106 109 112 114 117 120 122 124 124 124 123 121 118 117 117 117 118 118 117 115 112 107 102 97 94 94 95 96 96 94 92 90 89 86 79 71 65 60 54 49 46 44 41 39 40 43 42 38 35 31 29 27 27 28 28 27 25 25 24
108 104 101 99 97 95 93 93 95 97 97 100 102 105 107 110 112 113 114 113 112 111 110 109 109 109 111 115 117 119 122 124 125 125 124 122 119 117 116 117 118 118 117 115 113 110 106 100 96 94 94 95 96 96 95 93 93 93 90 83 76 69 63 58 53 48 44 42 40 41 44 46 43 39 36 33 30 28 28 30 31 30 28 27 26
111 108 105 102 100 98 96 95 98 101 102 104 107 109 111 114 116 118 119 120 119 117 116 114 113 114 117 120 122 124 125 127 126 124 121 119 117 117 118 118 117 114 112 109 106 101 98 96 95 96 96 96 96 95 94 94 95 93 88 81 74 67 61 56 51 46 43 42 44 48 49 47 43 41 39 34 31 30 31 33 33 32 31 29 28
115 112 109 106 104 102 99 97 98 102 104 106 108 110 112 115 118 121 123 124 123 122 120 118 118 119 122 124 125 126 127 126 124 121 119 119 120 120 119 115 111 108 106 103 98 96 95 95 96 97 97 96 96 95 96 97 96 92 86 78 72 65 59 54 50 47 46 47 51 54 51 46 44 43 40 36 33 32 33 34 34 33 32 32 32
120 117 114 111 108 106 104 102 100 102 105 107 109 110 113 116 119 122 124 125 125 124 122 122 122 123 124 125 124 124 124 124 122 120 120 121 121 119 116 110 106 102 98 95 95 96 97 96 96 96 96 96 96 97 99 99 95 89 82 76 70 64 58 54 52 51 50 53 56 55 50 46 45 42 40 38 36 34 34 33 33 33 33 33 33
125 123 119 116 113 110 109 107 105 105 106 108 109 111 114 116 119 121 123 125 125 124 124 124 125 125 125 123 123 124 123 123 122 122 121 120 119 116 111 105 100 94 90 92 96 99 98 97 97 96 95 96 98 101 101 98 92 86 80 74 68 62 58 56 55 54 54 56 57 54 50 47 45 42 41 40 38 36 34 33 32 31 32 33 34
128 127 124 121 118 114 112 112 110 108 107 109 111 113 114 115 118 120 122 124 123 123 124 125 127 128 127 127 126 125 124 123 122 121 120 120 118 114 109 103 95 87 86 93 98 99 98 97 95 95 97 100 103 103 99 94 89 84 78 72 66 62 59 59 59 57 56 57 57 54 51 48 44 42 42 42 40 38 35 34 32 30 30 31 33
129 129 127 125 123 120 118 116 114 111 108 109 112 114 114 115 117 119 120 121 121 123 125 127 130 131 130 129 127 124 123 122 122 122 121 120 117 113 107 100 90 82 84 94 99 99 98 96 95 97 101 104 105 101 95 90 86 81 75 69 64 62 61 62 61 59 59 59 57 54 51 48 45 44 44 43 42 39 37 35 32 31 29 29 30
131 131 130 129 128 126 123 121 118 114 110 108 112 115 115 116 117 119 120 120 121 123 126 130 132 133 131 129 126 123 123 122 123 122 122 121 118 113 106 96 85 79 84 94 99 99 98 97 99 103 105 105 102 97 92 86 81 75 69 65 61 62 64 64 63 61 61 60 58 56 52 49 47 46 45 44 43 41 39 37 34 32 30 28 28
132 131 132 132 132 131 128 125 123 119 114 111 113 116 118 118 118 119 121 122 123 126 129 131 131 132 131 128 126 124 124 124 124 123 123 122 118 111 102 91 80 77 85 95 99 99 99 102 104 106 104 102 99 93 87 81 75 69 64 61 60 63 68 68 64 63 63 61 59 57 54 51 49 47 46 44 43 41 39 38 37 35 33 30 28
134 134 135 136 135 135 134 132 129 125 122 118 118 119 121 121 121 121 123 126 130 133 136 136 135 134 131 128 127 127 126 124 123 122 121 120 116 108 96 86 78 77 88 97 99 99 102 105 106 105 103 100 95 89 83 77 70 67 64 63 64 70 74 70 67 65 64 62 60 57 54 52 51 48 46 45 43 41 39 38 37 36 35 34 31
136 137 140 142 141 140 139 138 135 131 129 126 123 124 125 124 124 126 129 133 137 141 142 141 138 137 135 132 129 127 125 121 119 118 118 117 112 104 93 85 80 82 94 99 97 100 105 107 107 105 102 96 90 84 79 74 72 70 68 69 73 77 76 71 69 67 65 63 60 58 55 54 52 50 48 46 44 42 40 38 37 37 36 36 35
136 138 142 148 148 145 145 144 141 138 136 133 129 127 127 127 127 128 131 134 138 142 143 140 137 136 137 135 131 128 124 120 119 118 118 116 110 102 95 88 85 89 95 96 98 105 109 109 108 105 100 92 86 80 78 77 76 74 73 76 79 79 76 73 71 69 66 63 61 59 57 56 54 52 50 48 47 45 42 40 39 38 37 37 37
135 136 140 148 152 151 149 147 146 143 141 139 135 131 130 129 128 127 127 129 133 138 140 139 136 136 138 137 133 129 126 123 123 123 120 114 108 103 97 92 91 95 95 95 103 112 113 112 110 103 96 89 83 81 82 82 79 77 77 79 80 79 76 75 72 69 66 64 62 61 59 58 56 54 52 51 50 48 46 44 42 41 39 38 38
136 136 139 146 154 156 154 152 150 148 146 145 142 137 134 132 129 126 124 125 130 136 138 137 138 139 140 140 136 132 129 127 126 124 118 109 104 102 99 95 96 99 99 102 111 116 115 113 108 100 92 86 83 84 85 82 79 78 78 79 80 78 77 74 72 69 67 66 65 64 62 61 59 57 56 54 52 51 49 48 47 45 43 41 39
138 139 140 145 152 157 157 156 155 153 151 151 149 143 139 136 133 128 124 123 127 132 135 138 141 143 143 143 139 134 131 127 126 123 115 107 104 105 103 100 101 104 106 111 117 117 116 113 106 98 90 85 85 87 84 80 78 78 78 79 79 78 75 73 72 70 69 68 68 67 65 63 62 60 58 57 55 53 51 50 49 48 46 44 42
141 142 141 143 148 153 156 158 158 156 154 154 152 147 143 141 138 132 126 122 121 124 130 137 141 142 142 142 139 135 132 128 125 121 113 106 105 107 107 105 106 109 112 117 119 119 119 114 105 95 89 87 88 86 82 78 77 77 78 79 79 77 74 73 73 72 72 71 70 68 66 64 63 61 59 58 56 54 52 50 49 48 47 46 44
145 145 144 145 146 149 153 156 158 157 156 156 153 149 147 146 143 137 129 122 119 122 128 136 140 140 141 143 140 136 132 127 124 116 109 106 105 107 108 107 109 112 115 119 121 122 122 115 104 96 93 91 88 85 81 79 77 78 79 80 79 77 75 75 75 75 74 73 71 69 66 64 63 61 59 58 56 55 53 51 49 47 46 46 45
147 147 147 147 146 147 151 154 157 158 159 158 154 150 148 148 145 139 131 124 120 125 133 138 141 141 142 142 140 136 131 124 117 108 103 106 109 109 109 110 112 115 120 124 126 127 125 116 106 101 97 92 88 85 82 80 79 79 79 79 78 78 78 79 79 78 76 74 72 69 66 64 62 59 57 56 54 53 52 50 48 46 45 44 43
149 150 150 150 148 148 150 153 156 158 160 160 156 152 149 148 146 141 135 130 128 131 138 141 141 140 141 139 135 130 122 114 108 105 105 110 115 115 115 116 116 119 125 129 132 131 126 117 110 105 99 93 89 85 81 78 78 79 80 79 79 81 82 83 82 80 78 75 71 68 65 62 59 57 54 52 51 51 49 48 46 45 43 42 41
151 153 152 151 150 150 152 154 157 159 160 161 159 155 151 149 148 145 142 138 136 136 140 142 139 136 137 135 130 122 110 106 107 113 116 119 124 123 121 121 121 125 130 133 134 133 127 119 114 107 98 91 86 82 79 76 76 78 80 81 82 84 85 85 83 81 78 74 70 67 63 60 57 54 52 50 48 47 47 45 44 43 41 40 39
155 156 155 153 152 153 154 155 158 160 161 161 160 157 154 152 150 149 146 145 143 140 141 141 138 137 138 136 132 123 113 110 114 123 126 127 131 129 125 124 124 129 135 138 138 135 130 124 116 105 94 87 83 80 78 76 77 80 82 83 85 87 87 86 83 81 78 73 69 66 62 59 55 52 50 47 45 44 44 43 42 41 39 38 37
160 160 157 154 153 154 155 157 159 162 163 162 160 157 156 155 153 152 151 151 150 148 145 145 145 145 145 143 139 133 127 122 122 127 130 130 135 135 130 128 130 135 141 144 143 139 132 125 113 103 94 87 82 80 78 79 81 83 85 86 88 90 89 86 83 80 76 72 69 65 61 57 54 51 48 45 43 42 41 41 40 39 37 36 35
163 163 161 157 155 156 158 160 163 165 165 164 162 160 159 159 157 157 157 158 159 156 154 154 155 153 152 150 148 146 141 133 132 135 134 135 140 141 137 135 137 141 147 150 148 141 131 121 114 107 98 88 83 81 79 84 88 89 89 90 92 92 89 86 83 79 75 72 68 64 60 56 53 50 47 44 41 40 39 39 39 38 36 34 33
167 167 167 164 162 160 161 164 166 167 166 166 165 163 163 163 163 162 162 164 167 166 162 161 161 158 156 157 158 158 150 143 145 147 142 143 147 148 146 142 143 148 153 154 149 140 130 124 121 112 99 89 85 83 83 89 95 95 95 95 95 92 88 85 82 79 75 71 67 63 59 55 52 50 46 42 39 38 37 37 38 37 35 33 32
175 176 177 173 169 167 167 168 170 170 169 168 169 169 169 169 168 167 168 171 174 174 172 169 167 165 163 165 171 171 161 155 158 157 153 154 155 156 154 148 147 152 156 157 151 144 139 135 126 112 102 94 88 85 87 94 99 99 98 98 96 92 88 85 82 79 75 71 67 63 59 55 51 48 45 41 38 36 35 35 36 36 35 33 31
186 185 187 183 178 176 175 175 176 177 176 176 175 176 178 177 176 175 176 178 181 183 182 180 177 176 175 176 178 179 177 173 170 165 162 162 163 165 164 155 150 152 157 160 158 155 152 144 128 116 109 99 90 90 95 101 102 102 101 99 97 94 90 86 83 80 76 71 67 63 59 54 50 47 44 41 38 35 33 32 33 34 34 33 31
198 195 194 192 189 187 185 184 184 184 185 186 186 186 186 185 185 184 184 184 186 190 190 188 187 187 188 186 182 181 185 191 186 175 169 170 172 173 170 161 152 154 159 163 167 170 167 152 132 126 122 109 99 98 103 107 108 106 106 103 101 97 92 88 86 83 76 69 63 59 55 51 47 44 42 39 36 33 31 29 29 30 31 31 29
206 204 202 200 200 198 195 194 193 193 194 195 195 195 194 194 192 191 191 189 188 192 195 193 191 192 194 194 192 188 189 195 198 190 179 178 181 180 176 167 160 161 165 171 178 184 182 168 146 134 125 117 108 106 112 116 116 115 113 108 105 100 94 91 89 84 75 63 50 43 43 44 44 42 40 37 34 32 30 28 26 25 25 26 25
208 210 209 208 209 209 206 204 202 201 201 201 202 202 201 200 199 196 196 192 188 187 189 188 188 190 193 196 199 200 196 193 198 201 195 191 192 190 183 174 169 170 175 183 190 193 195 192 181 162 132 119 114 116 123 124 125 125 119 112 109 102 96 94 89 80 69 50 29 18 20 31 40 41 37 34 32 30 29 27 25 23 21 21 20
210 213 214 214 215 216 214 211 207 207 207 206 206 206 206 205 203 200 197 192 185 181 180 180 180 182 188 193 197 202 204 198 196 202 207 208 206 202 196 187 180 179 184 193 197 200 207 211 212 220 233 179 123 118 124 129 133 132 126 119 114 105 97 93 85 74 60 35 10 0 359 14 35 38 33 29 27 27 26 24 22 21 20 18 16
213 214 217 217 217 218 217 214 210 208 209 209 208 207 207 206 204 201 196 191 185 181 178 176 175 176 180 188 193 196 202 205 203 203 210 218 222 219 212 202 194 191 193 199 203 208 217 222 225 236 252 269 289 23 108 127 138 140 135 131 120 106 96 86 72 62 54 29 1 351 350 3 28 34 29 23 20 21 20 18 18 18 19 18 15
216 216 218 220 220 219 218 215 212 210 210 210 209 208 207 206 204 202 196 192 189 187 183 179 177 178 177 181 188 190 196 205 211 211 213 220 228 233 230 221 214 210 209 212 212 217 226 231 236 243 253 267 282 302 333 114 142 146 139 132 98 85 79 68 47 41 44 22 350 343 347 358 18 27 24 18 13 13 13 11 11 13 15 16 15
218 218 219 220 220 221 219 217 215 214 214 212 211 209 208 206 205 203 199 197 195 195 193 190 187 187 185 181 182 184 190 201 211 218 221 223 227 232 234 232 229 228 230 232 229 229 237 243 247 253 258 267 278 291 300 308 292 151 137 317 347 26 37 30 13 13 25 9 343 341 347 354 5 14 17 13 7 5 6 5 6 8 10 12 13
215 217 219 218 218 219 220 218 217 217 217 216 214 211 208 208 207 205 203 202 202 202 202 203 201 198 197 193 189 186 186 194 207 218 226 230 232 234 237 239 240 241 244 248 248 246 251 256 259 262 266 269 276 286 294 301 308 315 321 310 315 323 322 330 340 353 8 0 341 341 346 349 354 360 5 7 4 0 0 -0 1 4 7 8 9
212 214 215 215 214 215 217 218 218 218 220 220 218 214 210 210 209 209 208 206 207 207 209 212 213 210 208 206 204 201 200 202 208 216 225 233 236 240 243 245 247 249 251 252 252 253 255 259 264 269 274 276 277 282 289 297 303 307 310 306 299 298 297 305 321 336 348 345 335 337 341 343 346 350 355 0 360 357 357 358 359 2 4 5 6
211 212 213 212 211 210 213 215 216 217 219 222 222 218 214 212 212 213 213 212 212 212 215 217 219 220 220 218 216 213 212 213 214 219 226 233 239 245 248 249 247 248 250 251 251 253 254 256 259 265 273 280 281 280 284 292 297 301 306 307 303 303 305 309 315 321 325 325 327 331 335 337 340 344 349 353 354 355 357 360 1 2 2 3 4
212 213 212 212 210 209 211 214 216 217 218 221 223 222 218 216 216 216 217 218 218 218 220 222 223 225 226 226 227 226 224 222 221 224 229 235 243 252 257 258 254 251 251 252 252 254 257 260 262 265 269 276 281 282 282 287 294 298 303 307 307 306 307 308 310 313 316 317 320 324 328 331 337 341 344 346 350 354 359 2 3 2 1 0 0
213 213 213 212 211 210 211 213 216 218 218 219 223 224 223 221 220 220 221 221 222 224 226 227 228 229 230 230 233 234 234 233 232 233 237 240 246 252 256 261 266 265 264 262 261 262 264 268 271 272 273 275 279 284 285 287 293 299 304 309 311 308 307 308 310 310 311 310 312 318 324 329 335 338 340 341 346 353 359 3 3 0 358 356 356
214 214 214 214 212 211 211 212 215 218 218 219 222 225 226 226 225 225 225 225 225 226 229 231 232 233 234 235 237 240 240 240 241 243 246 248 251 254 256 260 265 270 274 275 275 274 274 274 275 276 276 276 277 281 285 287 290 296 302 308 313 314 312 311 311 310 309 309 310 316 322 328 331 334 335 337 343 351 358 360 359 356 353 352 352
217 217 216 216 215 214 213 213 215 217 217 218 222 225 227 229 229 229 229 229 228 228 230 232 234 235 236 237 239 243 245 246 247 249 251 254 257 260 263 265 266 268 273 278 281 281 280 279 278 278 278 278 279 280 281 283 287 291 296 302 308 315 317 318 318 316 315 317 319 320 322 326 328 329 331 335 341 348 352 353 352 349 347 347 348
222 221 220 219 218 217 217 217 217 218 218 219 222 225 227 229 231 232 232 232 231 230 230 232 234 236 237 238 240 243 247 249 250 251 254 258 262 266 269 271 272 273 275 278 279 279 281 282 283 287 289 286 286 287 285 283 284 286 290 295 302 308 313 315 319 321 319 319 323 323 321 322 325 326 328 334 340 343 346 346 345 343 342 342 343
226 225 224 223 222 221 221 221 220 219 220 222 224 226 228 229 231 232 233 233 233 232 232 232 233 235 237 238 240 242 245 247 249 252 255 258 261 265 269 274 278 281 280 279 278 277 278 280 283 288 291 290 293 297 296 292 286 281 282 288 295 302 306 307 312 318 319 319 323 324 319 317 320 324 326 333 338 338 339 339 338 337 337 337 338
228 228 227 226 226 225 224 223 223 222 222 224 226 227 228 230 230 231 232 233 233 233 232 232 232 234 236 238 240 242 243 245 248 251 254 257 260 263 268 272 277 280 280 281 281 281 280 279 281 283 286 288 294 298 301 302 294 281 279 284 290 295 298 300 303 310 315 317 321 324 320 313 315 320 325 328 331 331 331 332 333 332 332 332 333
230 230 228 228 227 228 227 226 225 225 224 226 228 228 229 230 231 231 231 232 233 232 232 231 232 233 236 238 239 241 243 245 246 249 252 255 257 260 265 270 274 276 278 281 283 284 285 286 286 286 286 288 290 292 294 298 297 290 284 286 289 291 292 294 297 302 306 311 315 318 317 311 310 315 318 319 321 323 324 326 328 328 328 328 329
231 232 231 230 229 229 228 227 227 226 227 228 229 230 231 232 232 232 232 231 232 232 232 232 232 232 234 236 237 239 242 244 245 247 250 253 255 257 261 265 268 271 274 278 280 282 286 291 293 293 294 295 293 291 292 293 294 293 290 290 290 289 289 291 295 296 297 300 304 305 305 305 305 308 310 311 313 317 319 321 323 324 324 325 325
231 232 233 233 233 232 231 229 229 228 229 231 232 233 233 234 235 235 234 234 234 234 233 232 232 232 233 234 235 237 240 242 244 246 248 250 253 256 258 261 264 267 271 273 275 278 282 288 293 296 298 299 298 296 296 297 296 295 293 292 291 289 289 291 293 292 292 295 297 294 294 296 298 300 304 306 308 311 313 317 320 321 321 321 321
234 233 233 234 234 235 234 233 232 231 231 233 235 235 236 237 239 239 238 237 237 237 237 235 234 233 233 233 234 236 239 241 243 246 248 250 253 255 257 260 262 265 269 271 272 274 276 281 287 292 294 296 296 296 296 298 299 299 298 295 290 287 289 290 290 289 290 294 293 289 290 291 291 295 299 300 303 306 310 314 317 318 318 318 319
239 237 236 235 235 235 235 235 234 233 233 235 237 237 237 238 241 242 241 240 239 240 240 239 238 237 235 235 235 236 238 241 243 246 248 250 252 254 256 259 261 263 266 268 270 271 273 276 280 285 289 291 292 293 293 294 296 298 299 296 292 290 291 290 288 288 290 291 289 288 290 290 289 292 294 295 299 304 308 312 314 315 314 315 317
241 240 239 238 237 237 237 238 237 235 235 236 238 239 239 240 241 243 243 243 242 242 242 243 243 241 239 238 237 237 238 241 244 246 249 251 251 252 255 258 260 264 267 268 268 270 272 274 277 280 284 286 288 289 290 291 292 293 295 295 294 294 295 293 290 290 291 290 286 286 288 288 287 289 290 292 297 303 307 309 310 311 313 315 317
241 241 241 241 240 240 240 240 240 238 237 238 240 240 240 241 242 243 243 244 244 243 244 244 244 244 243 241 241 240 240 242 244 247 250 253 254 254 255 258 260 263 266 267 269 271 272 273 275 276 279 282 285 286 287 287 288 289 290 291 293 294 295 295 294 293 292 290 286 286 287 286 285 285 286 290 296 301 304 305 307 310 313 316 319
Height
5944 5944 5944 5943 5943 5943 5942 5942 5942 5941 5941 5941 5942 5942 5942 5943 5943 5944 5945 5945 5946 5947 5947 5947 5948 5948 5949 5949 5949 5949 5949 5949 5949 5950 5950 5951 5952 5952 5953 5953 5953 5953 5953 5953 5953 5953 5953 5953 5953 5953 5953 5953 5953 5953 5952 5952 5952 5952 5951 5951 5950 5950 5950 5949 5948 5947 5946 5945 5944 5942 5941 5940 5938 5936 5934 5931 5930 5928 5926 5924 5921 5918 5915 5912 5909
5945 5945 5945 5945 5945 5945 5945 5945 5944 5944 5944 5944 5945 5945 5945 5945 5946 5947 5947 5948 5948 5949 5949 5949 5950 5950 5951 5951 5951 5951 5951 5951 5952 5952 5953 5953 5954 5954 5954 5955 5955 5955 5954 5954 5954 5954 5954 5954 5954 5954 5954 5954 5954 5954 5954 5954 5953 5953 5952 5952 5952 5951 5951 5950 5949 5948 5947 5946 5945 5944 5942 5941 5939 5937 5935 5933 5931 5929 5927 5925 5922 5919 5916 5913 5910
5946 5946 5947 5947 5947 5947 5947 5947 5947 5947 5947 5947 5947 5947 5948 5948 5949 5949 5950 5950 5950 5951 5951 5951 5952 5952 5953 5953 5953 5953 5953 5954 5954 5954 5955 5955 5956 5956 5956 5956 5956 5956 5956 5956 5955 5955 5955 5956 5956 5956 5956 5955 5955 5955 5955 5955 5954 5954 5954 5953 5953 5953 5952 5951 5951 5950 5948 5947 5946 5945 5943 5942 5940 5938 5936 5934 5932 5930 5928 5926 5923 5920 5918 5915 5912
5947 5947 5948 5948 5949 5949 5949 5949 5949 5949 5949 5949 5949 5949 5950 5950 5951 5951 5952 5952 5952 5953 5953 5953 5954 5954 5955 5955 5955 5955 5955 5956 5956 5956 5957 5957 5958 5958 5958 5958 5958 5957 5957 5957 5957 5957 5957 5957 5957 5957 5957 5957 5957 5957 5956 5956 5955 5955 5955 5955 5954 5954 5953 5953 5952 5951 5950 5949 5947 5946 5945 5943 5942 5940 5938 5936 5934 5932 5929 5927 5924 5922 5919 5916 5914
5948 5949 5949 5949 5950 5950 5951 5951 5951 5951 5951 5951 5951 5951 5952 5952 5953 5953 5954 5954 5954 5955 5955 5955 5956 5956 5956 5957 5957 5957 5957 5958 5958 5958 5959 5959 5959 5960 5960 5959 5959 5959 5959 5959 5959 5959 5959 5959 5959 5959 5958 5958 5958 5958 5957 5957 5957 5957 5956 5956 5956 5955 5955 5954 5953 5952 5951 5950 5949 5947 5946 5945 5943 5941 5940 5938 5935 5933 5931 5928 5926 5923 5921 5918 5915
5949 5949 5950 5950 5951 5951 5952 5952 5952 5952 5952 5953 5953 5953 5953 5954 5954 5955 5955 5956 5956 5956 5957 5957 5958 5958 5958 5958 5959 5959 5959 5959 5960 5960 5961 5961 5961 5961 5961 5961 5960 5960 5961 5960 5960 5960 5960 5960 5960 5960 5960 5959 5959 5959 5959 5958 5958 5958 5958 5958 5957 5957 5956 5955 5955 5954 5952 5951 5950 5949 5948 5946 5944 5943 5941 5939 5937 5934 5932 5930 5927 5925 5922 5920 5917
5949 5950 5950 5951 5951 5952 5953 5953 5953 5954 5954 5954 5954 5955 5955 5955 5956 5956 5957 5957 5957 5958 5958 5959 5959 5959 5959 5959 5960 5960 5960 5961 5961 5962 5962 5963 5963 5963 5963 5962 5962 5962 5962 5962 5962 5962 5962 5961 5961 5961 5961 5961 5960 5960 5960 5960 5960 5960 5960 5959 5959 5958 5957 5957 5956 5955 5954 5953 5952 5950 5949 5948 5946 5944 5942 5940 5938 5936 5934 5931 5929 5926 5924 5921 5919
5950 5950 5951 5951 5952 5953 5953 5954 5954 5955 5955 5955 5956 5956 5956 5957 5957 5957 5958 5959 5959 5959 5959 5960 5960 5960 5960 5960 5960 5961 5961 5962 5962 5963 5963 5964 5964 5964 5964 5964 5964 5964 5964 5964 5963 5963 5963 5963 5962 5962 5962 5962 5962 5962 5962 5961 5961 5961 5961 5961 5960 5959 5959 5958 5957 5956 5955 5954 5953 5952 5951 5949 5948 5946 5944 5942 5940 5938 5936 5933 5931 5928 5926 5923 5920
5950 5951 5952 5952 5953 5953 5954 5955 5955 5955 5956 5956 5957 5957 5957 5958 5958 5959 5959 5960 5960 5960 5961 5961 5961 5961 5961 5961 5961 5962 5962 5963 5963 5964 5964 5965 5965 5966 5966 5966 5966 5965 5965 5965 5965 5964 5964 5964 5963 5963 5963 5963 5963 5963 5963 5963 5963 5963 5962 5962 5961 5960 5960 5959 5959 5958 5957 5956 5955 5953 5952 5951 5949 5947 5946 5944 5942 5939 5937 5935 5933 5930 5928 5925 5922
5951 5951 5952 5953 5953 5954 5955 5955 5956 5956 5956 5957 5958 5958 5958 5959 5959 5960 5960 5961 5961 5961 5962 5962 5962 5963 5962 5962 5962 5963 5963 5964 5964 5965 5966 5966 5967 5967 5967 5967 5967 5966 5966 5966 5966 5965 5965 5965 5965 5965 5965 5965 5965 5965 5965 5965 5965 5964 5964 5963 5962 5962 5961 5961 5960 5959 5958 5957 5956 5955 5954 5953 5951 5949 5947 5945 5943 5941 5939 5937 5935 5933 5930 5927 5924
5951 5952 5953 5954 5954 5955 5955 5956 5957 5957 5957 5958 5958 5959 5959 5960 5960 5961 5961 5962 5962 5962 5962 5963 5963 5964 5964 5964 5964 5964 5964 5965 5966 5966 5967 5967 5967 5967 5968 5968 5968 5967 5967 5967 5967 5967 5967 5966 5966 5966 5966 5966 5967 5967 5966 5966 5966 5965 5965 5964 5964 5963 5963 5962 5961 5961 5960 5959 5958 5957 5956 5954 5953 5951 5949 5947 5945 5943 5941 5939 5937 5934 5932 5930 5927
5952 5952 5953 5954 5955 5956 5956 5957 5957 5958 5958 5959 5959 5960 5960 5961 5961 5962 5962 5963 5963 5963 5963 5964 5964 5964 5965 5965 5965 5965 5966 5966 5967 5967 5968 5968 5968 5968 5968 5968 5968 5968 5968 5968 5968 5968 5968 5968 5968 5968 5968 5968 5968 5968 5968 5968 5967 5967 5966 5966 5965 5965 5964 5963 5963 5962 5961 5960 5959 5958 5957 5956 5954 5953 5951 5949 5947 5945 5943 5941 5939 5936 5934 5932 5929
5952 5953 5953 5954 5955 5956 5957 5957 5958 5958 5959 5959 5960 5961 5961 5962 5962 5963 5963 5964 5964 5964 5965 5965 5965 5965 5966 5966 5966 5966 5967 5967 5968 5968 5969 5969 5969 5969 5969 5969 5969 5969 5969 5969 5969 5969 5969 5969 5969 5970 5970 5970 5970 5970 5969 5969 5969 5968 5968 5967 5967 5966 5965 5965 5964 5963 5963 5962 5961 5960 5959 5958 5956 5955 5953 5951 5949 5948 5946 5943 5941 5939 5936 5934 5932
5952 5953 5954 5955 5955 5956 5957 5958 5958 5959 5959 5960 5961 5962 5962 5963 5963 5964 5964 5964 5965 5965 5965 5966 5966 5966 5967 5967 5967 5967 5968 5968 5969 5969 5970 5970 5969 5969 5969 5969 5969 5969 5970 5970 5971 5971 5971 5971 5971 5971 5971 5971 5971 5971 5971 5971 5970 5970 5969 5969 5968 5967 5967 5966 5966 5965 5964 5963 5962 5961 5960 5959 5958 5956 5955 5953 5952 5950 5948 5946 5944 5941 5939 5936 5934
5953 5953 5954 5955 5956 5956 5957 5958 5959 5959 5960 5960 5961 5962 5963 5963 5964 5964 5965 5965 5966 5966 5966 5966 5966 5967 5967 5968 5968 5968 5969 5969 5969 5970 5970 5970 5970 5970 5969 5969 5969 5970 5970 5971 5972 5972 5972 5973 5973 5973 5973 5973 5972 5972 5972 5972 5972 5971 5971 5970 5970 5969 5969 5968 5967 5966 5966 5965 5964 5963 5962 5961 5959 5958 5957 5955 5953 5952 5950 5948 5946 5944 5941 5939 5936
5954 5954 5954 5955 5956 5957 5957 5958 5959 5960 5960 5961 5962 5963 5963 5964 5964 5965 5965 5966 5966 5966 5966 5966 5967 5967 5968 5968 5969 5969 5969 5969 5970 5970 5970 5971 5970 5970 5970 5970 5970 5971 5971 5972 5973 5973 5974 5974 5974 5974 5974 5974 5974 5974 5974 5973 5973 5973 5972 5972 5971 5971 5970 5970 5969 5968 5967 5966 5966 5965 5964 5962 5961 5960 5958 5957 5955 5954 5952 5950 5948 5946 5944 5941 5939
5954 5955 5955 5956 5956 5957 5958 5958 5959 5960 5961 5962 5963 5963 5964 5964 5965 5965 5966 5967 5967 5967 5967 5967 5968 5968 5969 5969 5969 5969 5969 5970 5970 5970 5970 5971 5971 5970 5970 5971 5971 5971 5972 5973 5974 5975 5975 5975 5975 5976 5976 5975 5975 5975 5975 5974 5974 5974 5973 5973 5973 5972 5972 5971 5970 5969 5969 5968 5967 5966 5965 5964 5963 5961 5960 5958 5957 5956 5954 5952 5950 5948 5946 5944 5942
5955 5956 5956 5956 5957 5958 5958 5959 5960 5961 5961 5962 5963 5964 5964 5965 5965 5966 5966 5967 5967 5967 5967 5968 5968 5969 5969 5970 5970 5970 5970 5970 5971 5971 5971 5971 5972 5971 5971 5972 5972 5972 5973 5974 5975 5976 5976 5976 5976 5977 5977 5977 5976 5976 5976 5975 5975 5975 5975 5974 5974 5974 5973 5972 5972 5971 5970 5970 5969 5968 5967 5966 5964 5963 5962 5960 5959 5958 5956 5954 5952 5950 5948 5946 5944
5956 5956 5957 5957 5958 5958 5959 5959 5960 5961 5962 5963 5963 5964 5964 5965 5966 5966 5967 5967 5967 5968 5968 5968 5969 5969 5970 5970 5970 5971 5971 5971 5971 5971 5972 5972 5972 5972 5972 5973 5973 5974 5974 5975 5976 5976 5977 5977 5977 5977 5978 5977 5977 5977 5977 5976 5976 5976 5976 5975 5975 5975 5974 5974 5973 5973 5972 5971 5970 5969 5968 5967 5966 5965 5964 5962 5961 5959 5958 5956 5954 5952 5950 5948 5946
5956 5957 5958 5958 5958 5959 5959 5960 5961 5961 5962 5963 5963 5964 5964 5965 5966 5966 5967 5967 5968 5968 5968 5968 5969 5969 5970 5971 5971 5971 5971 5972 5972 5972 5972 5973 5973 5973 5973 5973 5974 5975 5975 5976 5976 5977 5977 5978 5978 5978 5978 5978 5978 5978 5978 5977 5977 5977 5977 5976 5976 5976 5975 5975 5975 5974 5973 5973 5972 5971 5970 5969 5968 5967 5965 5964 5962 5961 5959 5957 5955 5953 5952 5950 5948
5957 5957 5958 5958 5959 5959 5959 5960 5961 5962 5963 5963 5964 5964 5965 5965 5966 5966 5967 5967 5968 5968 5968 5969 5969 5970 5971 5971 5972 5972 5972 5972 5972 5973 5973 5973 5974 5974 5974 5974 5975 5976 5976 5977 5977 5978 5978 5978 5979 5979 5979 5979 5979 5979 5978 5978 5978 5978 5978 5978 5977 5977 5977 5976 5976 5975 5975 5974 5973 5973 5972 5971 5970 5968 5967 5965 5964 5962 5961 5959 5957 5955 5953 5951 5949
5957 5958 5958 5959 5959 5959 5960 5960 5961 5962 5963 5963 5964 5964 5965 5965 5966 5967 5967 5968 5968 5968 5969 5969 5970 5970 5971 5972 5972 5972 5972 5972 5973 5974 5974 5974 5975 5975 5975 5975 5976 5976 5977 5978 5978 5978 5979 5979 5979 5980 5980 5980 5980 5979 5979 5979 5979 5979 5979 5979 5979 5978 5978 5978 5977 5977 5977 5976 5975 5974 5973 5972 5971 5970 5969 5967 5966 5964 5962 5961 5959 5957 5955 5953 5951
5957 5958 5959 5959 5960 5960 5960 5961 5962 5962 5963 5963 5964 5964 5965 5965 5966 5967 5967 5968 5968 5969 5969 5970 5970 5971 5971 5972 5972 5972 5973 5973 5974 5974 5975 5975 5976 5976 5976 5976 5976 5977 5978 5978 5979 5979 5979 5980 5980 5980 5980 5980 5980 5980 5980 5980 5980 5980 5980 5980 5980 5980 5979 5979 5979 5979 5978 5977 5976 5975 5975 5974 5973 5971 5970 5969 5967 5965 5964 5962 5960 5958 5956 5955 5953
5958 5959 5960 5960 5960 5961 5961 5962 5962 5963 5963 5964 5964 5965 5965 5966 5966 5967 5968 5968 5969 5969 5970 5970 5971 5971 5972 5972 5973 5973 5973 5974 5974 5975 5975 5975 5976 5977 5977 5977 5977 5978 5978 5979 5979 5979 5980 5980 5981 5981 5981 5981 5981 5981 5980 5980 5980 5980 5981 5981 5981 5981 5981 5980 5980 5980 5979 5978 5977 5977 5976 5975 5974 5973 5971 5970 5968 5967 5965 5963 5962 5960 5958 5956 5954
5959 5960 5960 5961 5961 5961 5962 5962 5963 5963 5963 5964 5965 5965 5965 5966 5966 5967 5968 5969 5969 5969 5970 5971 5971 5972 5972 5973 5973 5974 5974 5974 5975 5975 5976 5976 5977 5977 5977 5977 5977 5978 5979 5979 5980 5980 5981 5981 5981 5981 5981 5982 5981 5981 5981 5981 5981 5981 5981 5982 5982 5982 5982 5982 5981 5981 5980 5979 5979 5978 5977 5976 5975 5974 5972 5971 5970 5968 5966 5965 5963 5961 5959 5957 5955
5960 5960 5961 5961 5962 5962 5963 5963 5963 5963 5964 5964 5965 5965 5966 5966 5967 5967 5968 5969 5970 5970 5970 5971 5972 5972 5973 5973 5974 5974 5974 5975 5975 5976 5976 5977 5977 5978 5978 5978 5978 5979 5979 5980 5980 5981 5981 5982 5982 5982 5982 5982 5982 5982 5982 5982 5982 5982 5982 5983 5983 5983 5983 5983 5982 5982 5981 5980 5980 5979 5978 5977 5976 5975 5973 5972 5971 5969 5967 5966 5964 5962 5960 5958 5956
5960 5961 5961 5962 5962 5963 5963 5963 5964 5964 5964 5965 5965 5966 5966 5966 5967 5967 5968 5969 5970 5970 5971 5971 5972 5972 5973 5974 5974 5975 5975 5975 5976 5976 5976 5977 5978 5978 5979 5979 5979 5979 5980 5981 5981 5982 5982 5982 5982 5982 5983 5983 5983 5983 5983 5983 5983 5983 5983 5983 5984 5984 5984 5983 5983 5983 5982 5981 5981 5980 5979 5978 5977 5975 5974 5972 5971 5970 5968 5967 5965 5963 5961 5959 5958
5960 5961 5961 5962 5963 5963 5963 5964 5964 5964 5964 5965 5965 5966 5966 5966 5967 5967 5968 5969 5969 5970 5971 5971 5972 5972 5973 5974 5974 5975 5975 5976 5976 5976 5977 5977 5978 5979 5979 5979 5980 5980 5981 5981 5982 5982 5982 5983 5983 5983 5983 5983 5983 5983 5983 5983 5984 5984 5984 5984 5984 5985 5984 5984 5984 5983 5982 5982 5982 5981 5980 5979 5977 5976 5974 5973 5972 5970 5969 5967 5966 5964 5962 5960 5959
5960 5961 5961 5962 5962 5963 5963 5963 5964 5964 5964 5965 5965 5966 5966 5966 5967 5967 5968 5968 5969 5970 5970 5971 5971 5972 5973 5974 5974 5975 5975 5976 5977 5977 5977 5977 5978 5979 5979 5980 5980 5980 5981 5982 5982 5983 5983 5983 5983 5983 5983 5983 5983 5984 5984 5984 5984 5985 5985 5985 5985 5985 5984 5984 5984 5983 5983 5983 5982 5982 5981 5979 5977 5976 5975 5973 5972 5971 5969 5968 5966 5964 5963 5961 5960
5959 5960 5961 5961 5962 5962 5963 5963 5963 5964 5964 5965 5965 5966 5966 5966 5967 5967 5968 5968 5969 5969 5970 5971 5971 5972 5973 5973 5974 5975 5975 5976 5977 5977 5977 5978 5978 5979 5980 5980 5980 5981 5982 5982 5983 5983 5983 5983 5984 5984 5984 5984 5984 5984 5985 5985 5985 5985 5985 5986 5986 5985 5985 5985 5985 5984 5983 5983 5983 5982 5981 5979 5978 5976 5975 5974 5972 5971 5970 5968 5966 5965 5963 5962 5960
5958 5959 5960 5960 5961 5962 5962 5962 5963 5963 5964 5964 5965 5965 5966 5966 5967 5967 5967 5968 5968 5969 5969 5970 5971 5972 5972 5973 5974 5975 5975 5976 5976 5977 5977 5978 5979 5979 5980 5980 5980 5981 5982 5982 5983 5983 5984 5984 5984 5984 5984 5984 5984 5985 5985 5986 5986 5986 5986 5986 5986 5985 5985 5985 5985 5984 5984 5984 5983 5982 5981 5980 5978 5976 5975 5974 5972 5971 5970 5968 5967 5966 5964 5962 5961
5956 5957 5958 5959 5960 5961 5961 5962 5962 5963 5963 5964 5964 5965 5965 5966 5966 5967 5967 5968 5968 5969 5969 5970 5971 5971 5972 5973 5973 5974 5975 5975 5976 5976 5977 5978 5979 5979 5980 5980 5980 5981 5982 5982 5983 5983 5984 5984 5984 5984 5984 5984 5985 5985 5986 5986 5986 5986 5986 5986 5986 5985 5985 5985 5985 5984 5984 5984 5983 5982 5981 5980 5978 5976 5974 5973 5972 5971 5970 5969 5967 5966 5964 5963 5961
5954 5955 5956 5958 5959 5959 5960 5960 5961 5962 5963 5963 5963 5964 5964 5965 5965 5966 5967 5967 5968 5969 5969 5970 5971 5971 5972 5972 5973 5973 5974 5975 5975 5976 5977 5977 5978 5979 5980 5980 5980 5981 5981 5982 5983 5983 5983 5983 5984 5984 5984 5984 5984 5985 5986 5986 5986 5986 5986 5986 5986 5985 5985 5984 5985 5984 5984 5984 5983 5982 5981 5979 5977 5975 5974 5973 5972 5971 5970 5969 5968 5966 5964 5963 5961
5952 5953 5954 5956 5957 5958 5959 5959 5960 5961 5962 5962 5962 5963 5964 5964 5965 5965 5966 5967 5968 5969 5969 5970 5970 5971 5971 5972 5972 5973 5973 5974 5974 5975 5976 5977 5977 5978 5979 5979 5980 5980 5981 5982 5982 5983 5983 5983 5983 5983 5983 5984 5984 5985 5985 5985 5986 5986 5986 5985 5985 5985 5984 5984 5984 5984 5983 5983 5983 5982 5981 5979 5977 5975 5974 5973 5972 5971 5970 5968 5967 5966 5964 5963 5961
5950 5951 5952 5954 5955 5956 5957 5958 5959 5960 5960 5961 5962 5962 5963 5963 5964 5965 5965 5966 5967 5968 5969 5970 5970 5971 5971 5971 5972 5972 5973 5973 5973 5974 5975 5976 5977 5977 5978 5979 5979 5980 5980 5981 5982 5982 5982 5982 5982 5982 5983 5983 5983 5984 5984 5984 5984 5985 5985 5985 5985 5984 5984 5984 5984 5983 5983 5983 5982 5981 5980 5979 5977 5975 5974 5972 5972 5971 5969 5968 5967 5965 5964 5962 5961
5947 5949 5950 5952 5953 5954 5956 5957 5958 5959 5959 5960 5960 5961 5962 5963 5963 5964 5965 5966 5966 5967 5968 5969 5970 5970 5970 5971 5971 5971 5972 5972 5973 5973 5974 5975 5975 5976 5977 5978 5978 5979 5980 5981 5981 5982 5982 5981 5981 5981 5981 5982 5982 5983 5983 5983 5982 5983 5983 5984 5984 5984 5984 5983 5983 5983 5982 5982 5981 5980 5979 5978 5977 5975 5974 5972 5971 5970 5969 5968 5966 5965 5963 5962 5961
5945 5947 5948 5950 5952 5953 5954 5955 5956 5957 5958 5959 5960 5960 5961 5962 5963 5964 5964 5965 5966 5966 5967 5968 5969 5969 5970 5970 5970 5971 5971 5972 5972 5973 5973 5974 5974 5975 5975 5976 5977 5978 5979 5979 5980 5980 5980 5980 5980 5980 5980 5980 5981 5981 5981 5981 5981 5981 5981 5982 5982 5983 5982 5982 5981 5981 5981 5981 5980 5979 5978 5977 5976 5975 5973 5972 5971 5970 5969 5967 5966 5964 5963 5961 5960
5943 5945 5947 5949 5950 5952 5953 5954 5955 5956 5957 5958 5959 5959 5960 5961 5962 5963 5964 5964 5965 5966 5966 5967 5967 5968 5969 5969 5970 5970 5970 5971 5971 5972 5972 5973 5973 5974 5974 5975 5975 5976 5977 5978 5978 5979 5979 5978 5978 5979 5979 5979 5979 5980 5980 5980 5979 5979 5979 5980 5980 5980 5981 5980 5980 5980 5979 5979 5978 5978 5977 5976 5975 5973 5972 5971 5970 5969 5968 5967 5965 5964 5962 5961 5959
5941 5943 5945 5947 5948 5949 5951 5952 5953 5955 5956 5957 5958 5959 5960 5961 5961 5962 5963 5964 5964 5965 5965 5966 5967 5967 5968 5968 5969 5969 5969 5970 5970 5971 5971 5972 5972 5973 5973 5974 5974 5975 5975 5976 5977 5977 5977 5977 5977 5977 5977 5978 5978 5978 5978 5978 5978 5977 5977 5978 5978 5978 5978 5978 5978 5978 5977 5977 5977 5976 5975 5974 5973 5972 5971 5970 5969 5968 5967 5966 5964 5963 5961 5960 5958
5939 5941 5943 5944 5945 5947 5948 5950 5951 5953 5954 5956 5957 5958 5959 5960 5961 5961 5962 5963 5963 5964 5965 5965 5966 5966 5967 5967 5968 5968 5968 5969 5969 5970 5970 5970 5971 5971 5972 5973 5974 5974 5974 5975 5975 5975 5975 5975 5975 5975 5976 5976 5976 5976 5976 5976 5976 5976 5976 5976 5976 5976 5976 5976 5976 5976 5976 5976 5975 5975 5974 5973 5972 5970 5970 5969 5968 5967 5965 5964 5963 5961 5960 5958 5957
5937 5938 5940 5941 5942 5944 5946 5947 5948 5950 5952 5954 5955 5956 5957 5958 5960 5960 5961 5962 5962 5963 5964 5964 5965 5965 5966 5966 5966 5967 5968 5968 5969 5969 5969 5969 5970 5970 5971 5972 5972 5973 5973 5973 5974 5974 5974 5974 5974 5974 5974 5974 5974 5974 5974 5975 5975 5975 5974 5974 5974 5974 5974 5974 5974 5974 5973 5973 5973 5972 5972 5971 5970 5969 5968 5967 5966 5965 5964 5963 5961 5960 5958 5957 5955
5935 5936 5937 5939 5940 5942 5944 5945 5946 5948 5950 5951 5952 5954 5955 5957 5958 5959 5960 5961 5961 5962 5963 5963 5964 5964 5964 5965 5965 5966 5967 5968 5968 5968 5968 5969 5969 5969 5970 5971 5971 5971 5972 5972 5972 5972 5972 5972 5972 5972 5973 5973 5972 5972 5972 5973 5973 5973 5973 5972 5972 5972 5972 5972 5972 5972 5971 5971 5971 5970 5970 5969 5968 5967 5966 5965 5964 5963 5962 5961 5960 5958 5957 5955 5954
5932 5933 5935 5936 5938 5940 5941 5943 5945 5946 5948 5949 5950 5951 5952 5954 5955 5957 5958 5959 5960 5961 5961 5962 5963 5963 5963 5964 5964 5965 5966 5967 5967 5968 5968 5968 5968 5969 5969 5970 5970 5970 5970 5970 5971 5971 5971 5971 5971 5971 5971 5971 5971 5970 5971 5971 5971 5971 5971 5970 5970 5969 5969 5970 5970 5970 5969 5969 5968 5968 5968 5967 5966 5965 5964 5963 5962 5961 5960 5959 5958 5957 5955 5954 5952
5928 5930 5932 5934 5935 5937 5938 5940 5942 5944 5946 5946 5947 5948 5950 5951 5953 5954 5955 5956 5957 5958 5959 5960 5961 5961 5962 5963 5964 5964 5965 5966 5966 5967 5967 5968 5968 5968 5968 5969 5969 5969 5969 5969 5969 5969 5969 5970 5970 5970 5969 5969 5969 5969 5969 5969 5969 5968 5968 5968 5967 5967 5967 5967 5967 5967 5967 5967 5966 5966 5966 5965 5964 5963 5962 5961 5960 5959 5959 5958 5957 5955 5953 5952 5950
5925 5927 5928 5930 5931 5933 5935 5937 5939 5941 5943 5944 5944 5946 5947 5948 5949 5951 5952 5953 5954 5955 5957 5958 5959 5960 5960 5961 5963 5963 5964 5964 5964 5965 5965 5966 5966 5967 5967 5968 5968 5968 5968 5968 5968 5968 5968 5968 5969 5969 5968 5968 5968 5967 5967 5967 5967 5966 5966 5965 5965 5965 5964 5964 5964 5964 5965 5965 5964 5964 5964 5963 5962 5961 5960 5959 5958 5957 5957 5956 5955 5953 5952 5950 5949
5922 5924 5926 5927 5928 5929 5931 5933 5935 5937 5939 5941 5942 5943 5944 5946 5946 5947 5949 5950 5951 5952 5954 5955 5956 5957 5958 5959 5961 5961 5962 5962 5963 5963 5963 5963 5964 5965 5966 5966 5966 5966 5966 5966 5966 5967 5967 5967 5968 5967 5967 5967 5966 5965 5964 5964 5965 5964 5964 5963 5963 5962 5962 5961 5961 5961 5962 5962 5962 5961 5961 5961 5960 5959 5958 5957 5956 5955 5954 5954 5952 5951 5950 5948 5947
5918 5920 5922 5924 5926 5927 5928 5929 5931 5934 5936 5938 5939 5941 5942 5943 5943 5944 5946 5947 5948 5949 5951 5952 5953 5954 5955 5956 5958 5959 5959 5960 5960 5960 5961 5961 5961 5962 5963 5964 5964 5964 5964 5964 5964 5965 5966 5966 5966 5966 5965 5965 5964 5963 5962 5962 5962 5962 5962 5961 5961 5960 5959 5959 5958 5958 5958 5958 5959 5959 5958 5958 5958 5957 5956 5954 5953 5952 5952 5951 5950 5949 5947 5946 5944
5915 5917 5918 5920 5922 5924 5925 5927 5929 5931 5933 5934 5936 5938 5939 5940 5940 5941 5943 5945 5946 5947 5948 5949 5950 5951 5952 5953 5955 5956 5957 5957 5958 5958 5958 5958 5959 5960 5961 5961 5961 5962 5962 5962 5962 5963 5964 5964 5965 5964 5963 5963 5962 5961 5960 5960 5960 5960 5960 5959 5958 5957 5957 5956 5956 5955 5955 5955 5955 5955 5955 5955 5954 5954 5953 5952 5950 5950 5949 5948 5947 5946 5944 5943 5942
5913 5914 5915 5916 5918 5919 5921 5923 5926 5928 5930 5931 5932 5934 5936 5937 5937 5939 5941 5942 5943 5945 5946 5946 5947 5948 5949 5950 5952 5953 5954 5954 5955 5955 5955 5956 5957 5958 5958 5958 5958 5959 5960 5959 5959 5960 5962 5962 5963 5963 5961 5960 5960 5959 5958 5958 5958 5958 5957 5957 5956 5955 5954 5954 5953 5952 5952 5952 5952 5951 5952 5951 5951 5950 5950 5949 5947 5947 5946 5945 5945 5943 5942 5940 5939
5909 5910 5912 5913 5914 5916 5918 5920 5923 5925 5927 5928 5929 5931 5933 5933 5934 5936 5938 5940 5941 5942 5943 5944 5945 5945 5946 5947 5948 5949 5951 5951 5951 5951 5951 5953 5954 5955 5955 5955 5956 5957 5957 5956 5956 5957 5959 5960 5960 5960 5959 5958 5957 5957 5956 5956 5955 5955 5955 5954 5953 5953 5952 5952 5950 5950 5949 5948 5948 5947 5948 5948 5947 5947 5946 5945 5944 5944 5943 5942 5941 5940 5939 5937 5936
5903 5905 5907 5909 5911 5913 5915 5917 5919 5922 5924 5925 5926 5928 5929 5930 5931 5933 5935 5937 5939 5940 5941 5941 5942 5943 5944 5945 5945 5946 5947 5947 5947 5947 5948 5949 5951 5952 5952 5952 5954 5955 5954 5953 5953 5954 5956 5957 5957 5957 5957 5956 5955 5955 5954 5953 5953 5953 5953 5952 5951 5950 5950 5949 5948 5947 5946 5946 5944 5944 5944 5944 5944 5943 5942 5941 5941 5941 5940 5939 5938 5938 5936 5935 5933